"Sample Date","Sample Time","Sample Value","Units","Flow Rate","Sample Interval","Number Channels","Micron Size 0","Counts/Channel 0","Micron Size 1","Counts/Channel 1","Micron Size 2","Counts/Channel 2","Micron Size 3","Counts/Channel 3","Micron Size 4","Counts/Channel 4","Micron Size 5","Counts/Channel 5","Micron Size 6","Counts/Channel 6","Micron Size 7","Counts/Channel 7","Micron Size 8","Counts/Channel 8","Micron Size 9","Counts/Channel 9","Micron Size 10","Counts/Channel 10","Micron Size 11","Counts/Channel 11","Micron Size 12","Counts/Channel 12","Micron Size 13","Counts/Channel 13","Micron Size 14","Counts/Channel 14","Micron Size 15","Counts/Channel 15","Micron Size 16","Counts/Channel 16","Micron Size 17","Counts/Channel 17","Micron Size 18","Counts/Channel 18","Micron Size 19","Counts/Channel 19","Micron Size 20","Counts/Channel 20","Micron Size 21","Counts/Channel 21","Micron Size 22","Counts/Channel 22","Micron Size 23","Counts/Channel 23","Micron Size 24","Counts/Channel 24","Micron Size 25","Counts/Channel 25","Micron Size 26","Counts/Channel 26","Micron Size 27","Counts/Channel 27","Micron Size 28","Counts/Channel 28","Micron Size 29","Counts/Channel 29","Micron Size 30","Counts/Channel 30","Micron Size 31","Counts/Channel 31"
"03/06/08","23:00:02",425876.000,"cc",28309.539,6.00,6,0.100,257925.000,0.200,157747.000,0.300,8675.000,0.500,1290.000,1.000,239.000,5.000,0
"03/06/08","23:00:08",268647.000,"cc",28299.311,6.00,6,0.100,139233.000,0.200,123327.000,0.300,4755.000,0.500,1108.000,1.000,224.000,5.000,0
"03/06/08","23:00:14",241019.000,"cc",28315.281,6.00,6,0.100,155564.000,0.200,81298.000,0.300,3050.000,0.500,896.000,1.000,211.000,5.000,0
"03/06/08","23:00:20",190667.000,"cc",28310.250,6.00,6,0.100,106155.000,0.200,79886.000,0.300,3478.000,0.500,930.000,1.000,218.000,5.000,0
"03/06/08","23:00:26",359208.000,"cc",28291.430,6.00,6,0.100,260942.000,0.200,88888.000,0.300,7733.000,0.500,1398.000,1.000,247.000,5.000,0
"03/06/08","23:00:32",461899.000,"cc",28355.736,6.00,6,0.100,313157.000,0.200,132153.000,0.300,14320.000,0.500,1993.000,1.000,276.000,5.000,0
"03/06/08","23:00:38",288289.000,"cc",28279.854,6.00,6,0.100,198417.000,0.200,81580.000,0.300,6795.000,0.500,1285.000,1.000,212.000,5.000,0
"03/06/08","23:00:44",261947.000,"cc",28322.723,6.00,6,0.100,147658.000,0.200,104889.000,0.300,7813.000,0.500,1355.000,1.000,232.000,5.000,0
"03/06/08","23:00:50",386831.000,"cc",28337.846,6.00,6,0.100,262180.000,0.200,114743.000,0.300,8281.000,0.500,1363.000,1.000,264.000,5.000,0
"03/06/08","23:00:56",205574.000,"cc",28295.779,6.00,6,0.100,79768.000,0.200,116408.000,0.300,7836.000,0.500,1334.000,1.000,228.000,5.000,0
"03/06/08","23:01:02",272476.000,"cc",28305.043,6.00,6,0.100,135553.000,0.200,127291.000,0.300,8066.000,0.500,1350.000,1.000,216.000,5.000,0
"03/06/08","23:01:08",275343.000,"cc",28257.891,6.00,6,0.100,146714.000,0.200,119927.000,0.300,7188.000,0.500,1270.000,1.000,244.000,5.000,0
"03/06/08","23:01:14",207851.000,"cc",28338.170,6.00,6,0.100,90701.000,0.200,109270.000,0.300,6471.000,0.500,1172.000,1.000,237.000,5.000,0
"03/06/08","23:01:20",253889.000,"cc",28360.113,6.00,6,0.100,143581.000,0.200,102485.000,0.300,6454.000,0.500,1144.000,1.000,225.000,5.000,0
"03/06/08","23:01:26",271514.000,"cc",28328.975,6.00,6,0.100,175526.000,0.200,89069.000,0.300,5622.000,0.500,1066.000,1.000,231.000,5.000,0
"03/06/08","23:01:32",202760.000,"cc",28322.543,6.00,6,0.100,90997.000,0.200,103700.000,0.300,6555.000,0.500,1248.000,1.000,260.000,5.000,0
"03/06/08","23:01:38",396589.000,"cc",28315.750,6.00,6,0.100,259927.000,0.200,126817.000,0.300,8296.000,0.500,1277.000,1.000,272.000,5.000,0
"03/06/08","23:01:44",186118.000,"cc",28322.992,6.00,6,0.100,78610.000,0.200,100440.000,0.300,5801.000,0.500,1028.000,1.000,239.000,5.000,0
"03/06/08","23:01:50",198633.000,"cc",28313.602,6.00,6,0.100,91071.000,0.200,100976.000,0.300,5287.000,0.500,1056.000,1.000,243.000,5.000,0
"03/06/08","23:01:56",170697.000,"cc",28338.740,6.00,6,0.100,79897.000,0.200,85179.000,0.300,4467.000,0.500,950.000,1.000,204.000,5.000,0
"03/06/08","23:02:02",201354.000,"cc",28319.723,6.00,6,0.100,89891.000,0.200,104610.000,0.300,5571.000,0.500,1059.000,1.000,223.000,5.000,0
"03/06/08","23:02:08",212330.000,"cc",28322.953,6.00,6,0.100,82183.000,0.200,121956.000,0.300,6830.000,0.500,1111.000,1.000,250.000,5.000,0
"03/06/08","23:02:14",209033.000,"cc",28292.078,6.00,6,0.100,83509.000,0.200,117821.000,0.300,6365.000,0.500,1100.000,1.000,238.000,5.000,0
"03/06/08","23:02:20",242273.000,"cc",28300.682,6.00,6,0.100,142853.000,0.200,93309.000,0.300,4865.000,0.500,1025.000,1.000,221.000,5.000,0
"03/06/08","23:02:26",267348.000,"cc",28289.244,6.00,6,0.100,133353.000,0.200,125528.000,0.300,7098.000,0.500,1115.000,1.000,254.000,5.000,0
"03/06/08","23:02:32",451418.000,"cc",28381.635,6.00,6,0.100,298289.000,0.200,142148.000,0.300,9397.000,0.500,1351.000,1.000,233.000,5.000,0
"03/06/08","23:02:38",245611.000,"cc",28271.777,6.00,6,0.100,138406.000,0.200,100355.000,0.300,5565.000,0.500,1048.000,1.000,237.000,5.000,0
"03/06/08","23:02:44",199798.000,"cc",28314.773,6.00,6,0.100,88791.000,0.200,104217.000,0.300,5500.000,0.500,1052.000,1.000,238.000,5.000,0
"03/06/08","23:02:50",195842.000,"cc",28259.350,6.00,6,0.100,87148.000,0.200,102280.000,0.300,5088.000,0.500,1070.000,1.000,256.000,5.000,0
"03/06/08","23:02:56",256837.000,"cc",28324.441,6.00,6,0.100,143475.000,0.200,106735.000,0.300,5291.000,0.500,1080.000,1.000,256.000,5.000,0
"03/06/08","23:03:02",218492.000,"cc",28339.906,6.00,6,0.100,132547.000,0.200,80919.000,0.300,3837.000,0.500,935.000,1.000,254.000,5.000,0
"03/06/08","23:03:08",453989.000,"cc",28368.988,6.00,6,0.100,312611.000,0.200,132627.000,0.300,7284.000,0.500,1199.000,1.000,268.000,5.000,0
"03/06/08","23:03:14",515827.000,"cc",28303.385,6.00,6,0.100,360224.000,0.200,145860.000,0.300,8391.000,0.500,1111.000,1.000,241.000,5.000,0
"03/06/08","23:03:20",493375.000,"cc",28286.031,6.00,6,0.100,324701.000,0.200,157204.000,0.300,9997.000,0.500,1212.000,1.000,261.000,5.000,0
"03/06/08","23:03:26",319413.000,"cc",28315.143,6.00,6,0.100,180079.000,0.200,130803.000,0.300,7199.000,0.500,1076.000,1.000,256.000,5.000,0
"03/06/08","23:03:32",501279.000,"cc",28346.561,6.00,6,0.100,337374.000,0.200,152316.000,0.300,10057.000,0.500,1257.000,1.000,275.000,5.000,0
"03/06/08","23:03:38",333232.000,"cc",28355.287,6.00,6,0.100,198233.000,0.200,127111.000,0.300,6596.000,0.500,1064.000,1.000,228.000,5.000,0
"03/06/08","23:03:44",262472.000,"cc",28340.240,6.00,6,0.100,126600.000,0.200,127936.000,0.300,6685.000,0.500,1042.000,1.000,209.000,5.000,0
"03/06/08","23:03:50",270056.000,"cc",28235.621,6.00,6,0.100,138558.000,0.200,124011.000,0.300,6261.000,0.500,992.000,1.000,234.000,5.000,0
"03/06/08","23:03:56",476405.000,"cc",28386.078,6.00,6,0.100,299825.000,0.200,164184.000,0.300,10989.000,0.500,1151.000,1.000,256.000,5.000,0
"03/06/08","23:04:02",384839.000,"cc",28336.982,6.00,6,0.100,233113.000,0.200,142364.000,0.300,7940.000,0.500,1165.000,1.000,257.000,5.000,0
"03/06/08","23:04:08",205563.000,"cc",28329.668,6.00,6,0.100,76513.000,0.200,121608.000,0.300,6102.000,0.500,1077.000,1.000,263.000,5.000,0
"03/06/08","23:04:14",323117.000,"cc",28254.750,6.00,6,0.100,172624.000,0.200,141175.000,0.300,7997.000,0.500,1072.000,1.000,249.000,5.000,0
"03/06/08","23:04:20",242467.000,"cc",28348.387,6.00,6,0.100,131896.000,0.200,104282.000,0.300,5095.000,0.500,971.000,1.000,223.000,5.000,0
"03/06/08","23:04:26",265351.000,"cc",28303.594,6.00,6,0.100,139311.000,0.200,118716.000,0.300,6092.000,0.500,1012.000,1.000,220.000,5.000,0
"03/06/08","23:04:32",486730.000,"cc",28267.051,6.00,6,0.100,311070.000,0.200,163175.000,0.300,10951.000,0.500,1288.000,1.000,246.000,5.000,0
"03/06/08","23:04:38",431292.000,"cc",28325.740,6.00,6,0.100,265716.000,0.200,154377.000,0.300,9670.000,0.500,1266.000,1.000,263.000,5.000,0
"03/06/08","23:04:44",446832.000,"cc",28311.113,6.00,6,0.100,286704.000,0.200,149384.000,0.300,9181.000,0.500,1253.000,1.000,310.000,5.000,0
"03/06/08","23:04:50",310804.000,"cc",28357.703,6.00,6,0.100,182692.000,0.200,119721.000,0.300,6988.000,0.500,1099.000,1.000,304.000,5.000,0
"03/06/08","23:04:56",399017.000,"cc",28309.832,6.00,6,0.100,257780.000,0.200,132043.000,0.300,7807.000,0.500,1124.000,1.000,263.000,5.000,0
"03/06/08","23:05:02",393211.000,"cc",28268.135,6.00,6,0.100,257467.000,0.200,126599.000,0.300,7695.000,0.500,1158.000,1.000,292.000,5.000,0
"03/06/08","23:05:08",346872.000,"cc",28357.631,6.00,6,0.100,236340.000,0.200,102835.000,0.300,6312.000,0.500,1128.000,1.000,257.000,5.000,0
"03/06/08","23:05:14",370906.000,"cc",28385.416,6.00,6,0.100,296628.000,0.200,68364.000,0.300,4498.000,0.500,1126.000,1.000,290.000,5.000,0
"03/06/08","23:05:20",260200.000,"cc",28235.635,6.00,6,0.100,136207.000,0.200,112013.000,0.300,9690.000,0.500,1889.000,1.000,401.000,5.000,0
"03/06/08","23:05:26",364861.000,"cc",28292.856,6.00,6,0.100,252282.000,0.200,102035.000,0.300,8583.000,0.500,1586.000,1.000,375.000,5.000,0
"03/06/08","23:05:32",253770.000,"cc",28341.869,6.00,6,0.100,141396.000,0.200,103428.000,0.300,7356.000,0.500,1293.000,1.000,297.000,5.000,0
"03/06/08","23:05:38",249881.000,"cc",28309.291,6.00,6,0.100,138053.000,0.200,103438.000,0.300,6800.000,0.500,1293.000,1.000,297.000,5.000,0
"03/06/08","23:05:44",334600.000,"cc",28323.363,6.00,6,0.100,268528.000,0.200,60836.000,0.300,3939.000,0.500,1014.000,1.000,283.000,5.000,0
"03/06/08","23:05:50",288794.000,"cc",28261.309,6.00,6,0.100,194749.000,0.200,87332.000,0.300,5276.000,0.500,1168.000,1.000,269.000,5.000,0
"03/06/08","23:05:56",384960.000,"cc",28292.906,6.00,6,0.100,308680.000,0.200,70769.000,0.300,4186.000,0.500,1059.000,1.000,266.000,5.000,0
"03/06/08","23:06:02",380495.000,"cc",28338.963,6.00,6,0.100,262167.000,0.200,110092.000,0.300,6871.000,0.500,1079.000,1.000,286.000,5.000,0
"03/06/08","23:06:08",436921.000,"cc",28293.318,6.00,6,0.100,291930.000,0.200,133778.000,0.300,9739.000,0.500,1226.000,1.000,248.000,5.000,0
"03/06/08","23:06:14",463680.000,"cc",28325.359,6.00,6,0.100,314380.000,0.200,139077.000,0.300,8839.000,0.500,1146.000,1.000,238.000,5.000,0
"03/06/08","23:06:20",246749.000,"cc",28316.912,6.00,6,0.100,133943.000,0.200,105812.000,0.300,5747.000,0.500,995.000,1.000,252.000,5.000,0
"03/06/08","23:06:26",198953.000,"cc",28366.967,6.00,6,0.100,83282.000,0.200,108773.000,0.300,5657.000,0.500,1030.000,1.000,211.000,5.000,0
"03/06/08","23:06:32",256182.000,"cc",28287.631,6.00,6,0.100,139073.000,0.200,110191.000,0.300,5647.000,0.500,1034.000,1.000,237.000,5.000,0
"03/06/08","23:06:38",427255.000,"cc",28310.522,6.00,6,0.100,275293.000,0.200,141614.000,0.300,8975.000,0.500,1122.000,1.000,251.000,5.000,0
"03/06/08","23:06:44",441588.000,"cc",28340.238,6.00,6,0.100,284234.000,0.200,147393.000,0.300,8650.000,0.500,1079.000,1.000,232.000,5.000,0
"03/06/08","23:06:50",328702.000,"cc",28255.742,6.00,6,0.100,199854.000,0.200,121366.000,0.300,6260.000,0.500,966.000,1.000,256.000,5.000,0
"03/06/08","23:06:56",337952.000,"cc",28291.293,6.00,6,0.100,199746.000,0.200,130309.000,0.300,6645.000,0.500,1000.000,1.000,252.000,5.000,0
"03/06/08","23:07:02",450075.000,"cc",28332.803,6.00,6,0.100,292447.000,0.200,147604.000,0.300,8656.000,0.500,1142.000,1.000,226.000,5.000,0
"03/06/08","23:07:08",244787.000,"cc",28331.572,6.00,6,0.100,135262.000,0.200,102997.000,0.300,5227.000,0.500,1048.000,1.000,253.000,5.000,0
"03/06/08","23:07:14",250580.000,"cc",28324.264,6.00,6,0.100,139771.000,0.200,104398.000,0.300,5142.000,0.500,1013.000,1.000,256.000,5.000,0
"03/06/08","23:07:20",268872.000,"cc",28308.309,6.00,6,0.100,134587.000,0.200,126238.000,0.300,6714.000,0.500,1082.000,1.000,251.000,5.000,0
"03/06/08","23:07:26",181103.000,"cc",28299.666,6.00,6,0.100,78922.000,0.200,96466.000,0.300,4546.000,0.500,941.000,1.000,228.000,5.000,0
"03/06/08","23:07:32",200340.000,"cc",28349.654,6.00,6,0.100,90068.000,0.200,104020.000,0.300,5041.000,0.500,979.000,1.000,232.000,5.000,0
"03/06/08","23:07:38",233555.000,"cc",28289.219,6.00,6,0.100,142906.000,0.200,85244.000,0.300,4182.000,0.500,971.000,1.000,252.000,5.000,0
"03/06/08","23:07:44",293449.000,"cc",28312.924,6.00,6,0.100,200618.000,0.200,87177.000,0.300,4392.000,0.500,997.000,1.000,265.000,5.000,0
"03/06/08","23:07:50",426287.000,"cc",28346.231,6.00,6,0.100,250094.000,0.200,158886.000,0.300,15485.000,0.500,1559.000,1.000,263.000,5.000,0
"03/06/08","23:07:56",438223.000,"cc",28310.377,6.00,6,0.100,265982.000,0.200,156395.000,0.300,14030.000,0.500,1529.000,1.000,287.000,5.000,0
"03/06/08","23:08:02",367582.000,"cc",28322.514,6.00,6,0.100,228622.000,0.200,128516.000,0.300,8849.000,0.500,1348.000,1.000,247.000,5.000,0
"03/06/08","23:08:08",304553.000,"cc",28370.232,6.00,6,0.100,236205.000,0.200,63611.000,0.300,3537.000,0.500,947.000,1.000,253.000,5.000,0
"03/06/08","23:08:14",298203.000,"cc",28304.305,6.00,6,0.100,234687.000,0.200,58850.000,0.300,3420.000,0.500,991.000,1.000,255.000,5.000,0
"03/06/08","23:08:20",286400.000,"cc",28339.451,6.00,6,0.100,204644.000,0.200,76059.000,0.300,4407.000,0.500,1027.000,1.000,263.000,5.000,0
"03/06/08","23:08:26",258779.000,"cc",28259.381,6.00,6,0.100,149030.000,0.200,101989.000,0.300,6411.000,0.500,1141.000,1.000,208.000,5.000,0
"03/06/08","23:08:32",209817.000,"cc",28290.887,6.00,6,0.100,75756.000,0.200,123942.000,0.300,8516.000,0.500,1342.000,1.000,261.000,5.000,0
"03/06/08","23:08:38",203357.000,"cc",28396.395,6.00,6,0.100,90287.000,0.200,105095.000,0.300,6575.000,0.500,1142.000,1.000,258.000,5.000,0
"03/06/08","23:08:44",192981.000,"cc",28355.029,6.00,6,0.100,86978.000,0.200,98289.000,0.300,6230.000,0.500,1211.000,1.000,273.000,5.000,0
"03/06/08","23:08:50",214870.000,"cc",28301.316,6.00,6,0.100,134943.000,0.200,74234.000,0.300,4445.000,0.500,991.000,1.000,257.000,5.000,0
"03/06/08","23:08:56",291768.000,"cc",28313.793,6.00,6,0.100,206068.000,0.200,79694.000,0.300,4800.000,0.500,964.000,1.000,242.000,5.000,0
"03/06/08","23:09:02",183621.000,"cc",28261.729,6.00,6,0.100,87343.000,0.200,89361.000,0.300,5580.000,0.500,1059.000,1.000,278.000,5.000,0
"03/06/08","23:09:08",201937.000,"cc",28367.488,6.00,6,0.100,90256.000,0.200,103754.000,0.300,6567.000,0.500,1136.000,1.000,224.000,5.000,0
"03/06/08","23:09:14",270829.000,"cc",28283.574,6.00,6,0.100,132335.000,0.200,128487.000,0.300,8561.000,0.500,1203.000,1.000,243.000,5.000,0
"03/06/08","23:09:20",306714.000,"cc",28255.838,6.00,6,0.100,195364.000,0.200,103389.000,0.300,6582.000,0.500,1118.000,1.000,261.000,5.000,0
"03/06/08","23:09:26",348555.000,"cc",28303.287,6.00,6,0.100,264433.000,0.200,78481.000,0.300,4502.000,0.500,937.000,1.000,202.000,5.000,0
"03/06/08","23:09:32",324749.000,"cc",28384.840,6.00,6,0.100,251726.000,0.200,67921.000,0.300,3913.000,0.500,923.000,1.000,266.000,5.000,0
"03/06/08","23:09:38",319302.000,"cc",28328.678,6.00,6,0.100,263930.000,0.200,51169.000,0.300,3102.000,0.500,886.000,1.000,215.000,5.000,0
"03/06/08","23:09:44",390894.000,"cc",28243.422,6.00,6,0.100,316354.000,0.200,69373.000,0.300,3893.000,0.500,1006.000,1.000,268.000,5.000,0
"03/06/08","23:09:50",321335.000,"cc",28341.148,6.00,6,0.100,199614.000,0.200,114108.000,0.300,6386.000,0.500,1017.000,1.000,210.000,5.000,0
"03/06/08","23:09:56",393627.000,"cc",28313.953,6.00,6,0.100,317403.000,0.200,71734.000,0.300,3532.000,0.500,788.000,1.000,170.000,5.000,0
"03/06/08","23:10:02",239814.000,"cc",28295.748,6.00,6,0.100,153266.000,0.200,81771.000,0.300,3733.000,0.500,852.000,1.000,192.000,5.000,0
"03/06/08","23:10:08",181735.000,"cc",28332.783,6.00,6,0.100,90022.000,0.200,86527.000,0.300,4119.000,0.500,882.000,1.000,185.000,5.000,0
"03/06/08","23:10:14",201710.000,"cc",28319.111,6.00,6,0.100,100990.000,0.200,95252.000,0.300,4419.000,0.500,860.000,1.000,189.000,5.000,0
"03/06/08","23:10:20",327135.000,"cc",28333.725,6.00,6,0.100,195484.000,0.200,123551.000,0.300,6923.000,0.500,993.000,1.000,184.000,5.000,0
"03/06/08","23:10:26",196322.000,"cc",28282.408,6.00,6,0.100,60579.000,0.200,127561.000,0.300,6956.000,0.500,1025.000,1.000,201.000,5.000,0
"03/06/08","23:10:32",211213.000,"cc",28334.838,6.00,6,0.100,89197.000,0.200,115019.000,0.300,5861.000,0.500,938.000,1.000,198.000,5.000,0
"03/06/08","23:10:38",404038.000,"cc",28336.207,6.00,6,0.100,265984.000,0.200,129756.000,0.300,7062.000,0.500,1041.000,1.000,195.000,5.000,0
"03/06/08","23:10:44",206892.000,"cc",28369.217,6.00,6,0.100,74558.000,0.200,124355.000,0.300,6734.000,0.500,1035.000,1.000,210.000,5.000,0
"03/06/08","23:10:50",339007.000,"cc",28317.637,6.00,6,0.100,200200.000,0.200,130483.000,0.300,7095.000,0.500,1001.000,1.000,228.000,5.000,0
"03/06/08","23:10:56",192103.000,"cc",28303.736,6.00,6,0.100,90330.000,0.200,95810.000,0.300,4847.000,0.500,898.000,1.000,218.000,5.000,0
"03/06/08","23:11:02",230641.000,"cc",28315.563,6.00,6,0.100,147889.000,0.200,77820.000,0.300,3878.000,0.500,833.000,1.000,221.000,5.000,0
"03/06/08","23:11:08",219280.000,"cc",28303.453,6.00,6,0.100,138365.000,0.200,75804.000,0.300,3955.000,0.500,931.000,1.000,225.000,5.000,0
"03/06/08","23:11:14",461099.000,"cc",28300.166,6.00,6,0.100,315579.000,0.200,135720.000,0.300,8439.000,0.500,1136.000,1.000,225.000,5.000,0
"03/06/08","23:11:20",197152.000,"cc",28291.930,6.00,6,0.100,85493.000,0.200,104840.000,0.300,5681.000,0.500,927.000,1.000,211.000,5.000,0
"03/06/08","23:11:26",153702.000,"cc",28313.535,6.00,6,0.100,76495.000,0.200,72466.000,0.300,3734.000,0.500,824.000,1.000,183.000,5.000,0
"03/06/08","23:11:32",314375.000,"cc",28318.404,6.00,6,0.100,209452.000,0.200,98406.000,0.300,5473.000,0.500,866.000,1.000,178.000,5.000,0
"03/06/08","23:11:38",335254.000,"cc",28301.119,6.00,6,0.100,197088.000,0.200,129374.000,0.300,7622.000,0.500,975.000,1.000,195.000,5.000,0
"03/06/08","23:11:44",458712.000,"cc",28300.240,6.00,6,0.100,306717.000,0.200,141704.000,0.300,8964.000,0.500,1110.000,1.000,217.000,5.000,0
"03/06/08","23:11:50",503316.000,"cc",28388.277,6.00,6,0.100,347697.000,0.200,144369.000,0.300,9986.000,0.500,1054.000,1.000,210.000,5.000,0
"03/06/08","23:11:56",267512.000,"cc",28301.961,6.00,6,0.100,140121.000,0.200,119238.000,0.300,7000.000,0.500,950.000,1.000,203.000,5.000,0
"03/06/08","23:12:02",198214.000,"cc",28313.922,6.00,6,0.100,96071.000,0.200,95839.000,0.300,5265.000,0.500,852.000,1.000,187.000,5.000,0
"03/06/08","23:12:08",408346.000,"cc",28265.523,6.00,6,0.100,330310.000,0.200,73056.000,0.300,3937.000,0.500,845.000,1.000,198.000,5.000,0
"03/06/08","23:12:14",160588.000,"cc",28265.908,6.00,6,0.100,78475.000,0.200,76965.000,0.300,4155.000,0.500,800.000,1.000,193.000,5.000,0
"03/06/08","23:12:20",212581.000,"cc",28357.779,6.00,6,0.100,95337.000,0.200,109963.000,0.300,6182.000,0.500,919.000,1.000,180.000,5.000,0
"03/06/08","23:12:26",250162.000,"cc",28370.023,6.00,6,0.100,135047.000,0.200,107706.000,0.300,6344.000,0.500,907.000,1.000,158.000,5.000,0
"03/06/08","23:12:32",194612.000,"cc",28292.428,6.00,6,0.100,121312.000,0.200,68456.000,0.300,3867.000,0.500,771.000,1.000,206.000,5.000,0
"03/06/08","23:12:38",248522.000,"cc",28281.719,6.00,6,0.100,151578.000,0.200,90651.000,0.300,5262.000,0.500,847.000,1.000,184.000,5.000,0
"03/06/08","23:12:44",210566.000,"cc",28352.527,6.00,6,0.100,91497.000,0.200,111127.000,0.300,6803.000,0.500,937.000,1.000,202.000,5.000,0
"03/06/08","23:12:50",433688.000,"cc",28311.647,6.00,6,0.100,271253.000,0.200,149871.000,0.300,11214.000,0.500,1148.000,1.000,202.000,5.000,0
"03/06/08","23:12:56",372195.000,"cc",28272.481,6.00,6,0.100,225528.000,0.200,136499.000,0.300,9006.000,0.500,986.000,1.000,176.000,5.000,0
"03/06/08","23:13:02",202348.000,"cc",28406.197,6.00,6,0.100,84017.000,0.200,110943.000,0.300,6295.000,0.500,911.000,1.000,182.000,5.000,0
"03/06/08","23:13:08",460461.000,"cc",28323.211,6.00,6,0.100,315881.000,0.200,134774.000,0.300,8569.000,0.500,1021.000,1.000,216.000,5.000,0
"03/06/08","23:13:14",357166.000,"cc",28331.387,6.00,6,0.100,211429.000,0.200,134996.000,0.300,9465.000,0.500,1064.000,1.000,212.000,5.000,0
"03/06/08","23:13:20",290981.000,"cc",28260.586,6.00,6,0.100,206574.000,0.200,79159.000,0.300,4186.000,0.500,863.000,1.000,199.000,5.000,0
"03/06/08","23:13:26",202118.000,"cc",28328.809,6.00,6,0.100,93456.000,0.200,102527.000,0.300,5105.000,0.500,845.000,1.000,185.000,5.000,0
"03/06/08","23:13:32",271359.000,"cc",28314.234,6.00,6,0.100,142887.000,0.200,121061.000,0.300,6291.000,0.500,926.000,1.000,194.000,5.000,0
"03/06/08","23:13:38",257082.000,"cc",28363.375,6.00,6,0.100,158706.000,0.200,93128.000,0.300,4264.000,0.500,803.000,1.000,181.000,5.000,0
"03/06/08","23:13:44",215368.000,"cc",28356.826,6.00,6,0.100,93966.000,0.200,114844.000,0.300,5493.000,0.500,875.000,1.000,190.000,5.000,0
"03/06/08","23:13:50",208791.000,"cc",28325.438,6.00,6,0.100,94186.000,0.200,108549.000,0.300,5054.000,0.500,823.000,1.000,179.000,5.000,0
"03/06/08","23:13:56",200715.000,"cc",28273.803,6.00,6,0.100,94391.000,0.200,100369.000,0.300,4914.000,0.500,868.000,1.000,173.000,5.000,0
"03/06/08","23:14:02",437432.000,"cc",28260.846,6.00,6,0.100,278641.000,0.200,147390.000,0.300,10190.000,0.500,1032.000,1.000,179.000,5.000,0
"03/06/08","23:14:08",416195.000,"cc",28333.500,6.00,6,0.100,254235.000,0.200,149893.000,0.300,10804.000,0.500,1084.000,1.000,179.000,5.000,0
"03/06/08","23:14:14",450569.000,"cc",28279.004,6.00,6,0.100,279157.000,0.200,157489.000,0.300,12585.000,0.500,1142.000,1.000,196.000,5.000,0
"03/06/08","23:14:20",383742.000,"cc",28343.818,6.00,6,0.100,231564.000,0.200,142218.000,0.300,8779.000,0.500,1019.000,1.000,162.000,5.000,0
"03/06/08","23:14:26",348579.000,"cc",28332.604,6.00,6,0.100,198411.000,0.200,139124.000,0.300,9857.000,0.500,1020.000,1.000,167.000,5.000,0
"03/06/08","23:14:32",180891.000,"cc",28356.647,6.00,6,0.100,87365.000,0.200,88260.000,0.300,4289.000,0.500,805.000,1.000,172.000,5.000,0
"03/06/08","23:14:38",217195.000,"cc",28282.191,6.00,6,0.100,95868.000,0.200,114315.000,0.300,5933.000,0.500,888.000,1.000,191.000,5.000,0
"03/06/08","23:14:44",206132.000,"cc",28346.156,6.00,6,0.100,88264.000,0.200,110810.000,0.300,5973.000,0.500,905.000,1.000,180.000,5.000,0
"03/06/08","23:14:50",450360.000,"cc",28331.973,6.00,6,0.100,275570.000,0.200,160094.000,0.300,13298.000,0.500,1212.000,1.000,186.000,5.000,0
"03/06/08","23:14:56",442005.000,"cc",28319.793,6.00,6,0.100,287193.000,0.200,144394.000,0.300,9231.000,0.500,1000.000,1.000,187.000,5.000,0
"03/06/08","23:15:02",435154.000,"cc",28269.967,6.00,6,0.100,271201.000,0.200,152751.000,0.300,9989.000,0.500,1046.000,1.000,167.000,5.000,0
"03/06/08","23:15:08",315494.000,"cc",28339.637,6.00,6,0.100,165816.000,0.200,139913.000,0.300,8536.000,0.500,1042.000,1.000,187.000,5.000,0
"03/06/08","23:15:14",203446.000,"cc",28263.570,6.00,6,0.100,92237.000,0.200,104779.000,0.300,5367.000,0.500,894.000,1.000,169.000,5.000,0
"03/06/08","23:15:20",213510.000,"cc",28312.318,6.00,6,0.100,94275.000,0.200,112595.000,0.300,5642.000,0.500,826.000,1.000,172.000,5.000,0
"03/06/08","23:15:26",452436.000,"cc",28319.619,6.00,6,0.100,309793.000,0.200,133595.000,0.300,7843.000,0.500,997.000,1.000,208.000,5.000,0
"03/06/08","23:15:32",475613.000,"cc",28317.357,6.00,6,0.100,305520.000,0.200,157477.000,0.300,11270.000,0.500,1152.000,1.000,194.000,5.000,0
"03/06/08","23:15:38",322352.000,"cc",28332.557,6.00,6,0.100,179449.000,0.200,133414.000,0.300,8254.000,0.500,1030.000,1.000,205.000,5.000,0
"03/06/08","23:15:44",446189.000,"cc",28381.494,6.00,6,0.100,290527.000,0.200,144356.000,0.300,9987.000,0.500,1116.000,1.000,203.000,5.000,0
"03/06/08","23:15:50",421797.000,"cc",28358.617,6.00,6,0.100,248546.000,0.200,156354.000,0.300,15300.000,0.500,1369.000,1.000,228.000,5.000,0
"03/06/08","23:15:56",387105.000,"cc",28277.195,6.00,6,0.100,243932.000,0.200,133595.000,0.300,8369.000,0.500,1020.000,1.000,189.000,5.000,0
"03/06/08","23:16:02",206856.000,"cc",28305.563,6.00,6,0.100,77847.000,0.200,121067.000,0.300,6765.000,0.500,989.000,1.000,188.000,5.000,0